Weather Roundup
Issued by NWS Corpus Christi, TX

Home | Current Version | Previous Version | Text Only | Print | Product List | Glossary On
Versions: 1 2 3 4 5 6 7 8 9 10 11 12 13 14 15 16 17 18 19 20 21 22 23 24 25 26 27 28 29 30 31 32 33 34 35 36 37 38 39 40 41 42 43 44 45 46 47 48 49 50
000
ASUS44 KCRP 200410
HRRCRP

SOUTH TEXAS REGIONAL WEATHER ROUNDUP
NATIONAL WEATHER SERVICE CORPUS CHRISTI TX
1000 PM CST SUN NOV 19 2017


TXZ229>244-200500-
...CORPUS CHRISTI AREA OBSERVATIONS...

CITY           SKY/WX    TMP DP  RH WIND       PRES   REMARKS
CORPUS CHRISTI MOCLDY    56  33  42 CALM      30.25R
NAS CORPUS CHR MOCLDY    62  38  40 NE5       30.24S
ROCKPORT       CLOUDY    56  38  50 N3        30.24S
KINGSVILLE ARP FAIR      49  43  80 CALM      30.26S
KINGSVILLE NAS PTCLDY    52  41  66 SW5       30.26R
ALICE          PTCLDY    52  35  52 CALM      30.25R
$$

...VICTORIA AREA OBSERVATIONS...

CITY           SKY/WX    TMP DP  RH WIND       PRES   REMARKS
PORT LAVACA    CLOUDY    52  36  55 N3        30.25S
VICTORIA       CLOUDY    50  39  66 NE6       30.24F
BEEVILLE       FAIR      53  45  74 E5        30.24F
PLEASANTON     MOCLDY    51  40  65 CALM      30.26S
SAN ANTONIO    MOCLDY    52  34  50 CALM      30.25F
$$

...LAREDO AREA OBSERVATIONS...

CITY           SKY/WX    TMP DP  RH WIND       PRES   REMARKS
LAREDO         CLOUDY    55  35  47 E5        30.24S
COTULLA        CLOUDY    56  34  43 E6        30.23F
DEL RIO        PTCLDY    50  32  50 E5        30.20F
MCALLEN        CLEAR     59  44  57 E6        30.25F
HEBBRONVILLE   PTCLDY    51  33  50 S5        30.25S
$$

...OTHER TEXAS OBSERVATIONS...

CITY           SKY/WX    TMP DP  RH WIND       PRES   REMARKS
BROWNSVILLE    CLEAR     58  46  64 NW7       30.24S
HOUSTON        MOCLDY    48  39  71 CALM      30.25S
COL. STATION   PTCLDY    52  34  50 NE6       30.25S
AUSTIN         PTCLDY    43  40  89 CALM      30.25S
WACO           CLOUDY    37  33  85 SW5       30.25S
FORT WORTH     PTCLDY    48  32  53 CALM      30.22S
WICHITA FALLS  CLOUDY    42  24  49 S8        30.19S
LUBBOCK        CLOUDY    43  15  32 S13       30.15S
EL PASO        CLEAR     49  14  24 N6        30.15R
$$

...MARINE OBSERVATIONS...

STATION/POSITION TIME  SKY/WX   TEMP    WIND        PRES    VSBY  WAVE   SWELL
                                AIR SEA DIR/SP/G                  HT/PER HT/PER
                 (UTC)          (F)     (DEG/KT/KT) (MB)    (MI)  (FT/S) (FT/S)
PORT ARANSAS     0400            62 72  350/  7/  8 1023.9R
BUOY 90 E PORT A 0250            65 78   20/ 14/ 17 1023.0          5/ 7   3/ 7
BUOY 200 E PT IS 0250            68 80   40/ 17/ 21 1021.5          7/ 8   5/ 8
BUOY 15 E GALVES 0250            62 71   20/ 14/ 16 1023.8          2/ 3
$$




USA.gov is the U.S. government's official web portal to all federal, state and local government web resources and services.